KE7YUP Weather Reports


Display with metric or nautical units.
time (UTC)temp
F
wind
direction
speed
MPH
gust
MPH
rain 1hr
in
rain 24hr
in
rain mn
in
humidity
%
barometer
mb
20260506025817 51 117 1.0 2.0 0.00 0.00 0.00 62 1011.3
20260506024817 51 117 0.0 1.0 0.00 0.00 0.00 61 1011.3
20260506023817 51 117 2.0 3.0 0.00 0.00 0.00 59 1011.0
20260506022817 53 117 1.0 2.0 0.00 0.00 0.00 57 1011.7
20260506021817 54 117 3.0 4.0 0.00 0.00 0.00 56 1011.5
20260506020817 54 112 3.0 4.0 0.00 0.00 0.00 55 1011.4
20260506015837 54 110 3.0 6.0 0.00 0.00 0.00 54 1011.7
20260506014817 54 132 2.0 4.0 0.00 0.00 0.00 54 1011.7
20260506013817 55 112 4.0 7.0 0.00 0.00 0.00 53 1011.8
20260506012815 55 112 2.0 7.0 0.00 0.00 0.00 52 1011.6
20260506011816 55 100 4.0 7.0 0.00 0.00 0.00 52 1011.6
20260506010817 56 112 3.0 5.0 0.00 0.00 0.00 52 1011.8
20260506005816 56 100 5.0 9.0 0.00 0.00 0.00 52 1012.0
20260506004816 56 113 6.0 8.0 0.00 0.00 0.00 52 1011.8
20260506003858 56 83 2.0 6.0 0.00 0.00 0.00 53 1011.8
20260506002816 56 90 4.0 8.0 0.00 0.00 0.00 53 1011.7
20260506001817 56 86 4.0 7.0 0.00 0.00 0.00 52 1011.9
20260506000816 56 132 3.0 6.0 0.00 0.00 0.00 53 1011.6
20260505235816 55 113 6.0 10.0 0.00 0.00 0.00 53 1011.4
20260505234817 55 116 4.0 7.0 0.00 0.00 0.00 53 1011.5
20260505233816 55 134 2.0 6.0 0.00 0.00 0.00 56 1011.6
20260505232816 54 90 7.0 8.0 0.00 0.00 0.00 57 1011.6
20260505231816 53 88 7.0 9.0 0.00 0.00 0.00 58 1011.4
20260505230816 53 69 5.0 7.0 0.00 0.00 0.00 58 1011.5
20260505225817 53 83 3.0 7.0 0.00 0.00 0.00 58 1011.6
20260505224816 52 87 4.0 7.0 0.00 0.00 0.00 59 1011.6
20260505223816 52 80 3.0 8.0 0.00 0.00 0.00 60 1011.5
20260505222816 53 90 5.0 9.0 0.00 0.00 0.00 58 1012.0
20260505221816 53 70 5.0 8.0 0.00 0.00 0.00 54 1012.0
20260505220816 53 108 4.0 6.0 0.00 0.00 0.00 55 1012.0
20260505215816 53 91 5.0 9.0 0.00 0.00 0.00 54 1011.6
20260505214816 53 85 4.0 8.0 0.00 0.00 0.00 54 1011.6
20260505213816 53 131 3.0 7.0 0.00 0.00 0.00 55 1011.5
20260505212836 53 145 3.0 11.0 0.00 0.00 0.00 56 1012.0
20260505211816 53 77 6.0 9.0 0.00 0.00 0.00 60 1012.1
20260505210816 53 78 4.0 7.0 0.00 0.00 0.00 58 1012.0
20260505205816 53 113 4.0 7.0 0.00 0.00 0.00 58 1012.0
20260505204816 52 110 2.0 5.0 0.00 0.00 0.00 59 1011.7
20260505203836 53 125 6.0 11.0 0.00 0.00 0.00 58 1011.8
20260505202816 53 91 3.0 9.0 0.00 0.00 0.00 59 1011.7
20260505201816 52 100 5.0 9.0 0.00 0.00 0.00 58 1011.7
20260505200836 52 109 4.0 7.0 0.00 0.00 0.00 60 1011.7
20260505195816 52 123 5.0 10.0 0.00 0.00 0.00 61 1011.9
20260505194816 51 142 7.0 10.0 0.00 0.00 0.00 62 1011.7
20260505193816 51 108 9.0 13.0 0.00 0.00 0.00 63 1011.7
20260505192816 51 106 7.0 11.0 0.00 0.00 0.00 62 1011.5
20260505191816 51 119 4.0 9.0 0.00 0.00 0.00 64 1011.7
20260505190816 51 144 7.0 11.0 0.00 0.00 0.00 65 1011.5
20260505185816 50 113 7.0 13.0 0.00 0.00 0.00 66 1011.2
20260505184816 50 120 9.0 11.0 0.00 0.00 0.00 67 1011.3
20260505183816 50 109 7.0 11.0 0.00 0.00 0.00 69 1011.3
20260505182816 50 159 9.0 12.0 0.00 0.00 0.00 69 1011.2
20260505181816 49 146 4.0 8.0 0.00 0.00 0.00 69 1011.2
20260505180836 49 107 2.0 10.0 0.00 0.00 0.00 69 1011.2
20260505175836 49 118 4.0 9.0 0.00 0.00 0.00 70 1011.3
20260505174816 49 125 8.0 12.0 0.00 0.00 0.00 71 1011.3
20260505173816 49 133 7.0 12.0 0.00 0.00 0.00 72 1011.3
20260505172816 48 152 10.0 14.0 0.00 0.00 0.00 73 1011.2
20260505171816 48 125 4.0 11.0 0.00 0.00 0.00 74 1011.2
20260505170816 48 122 4.0 9.0 0.00 0.00 0.00 76 1011.3
20260505165816 47 117 4.0 8.0 0.00 0.00 0.00 75 1011.2
20260505164816 48 91 5.0 8.0 0.00 0.00 0.00 75 1011.5
20260505163816 48 98 8.0 10.0 0.00 0.00 0.00 75 1011.5
20260505162836 47 84 9.0 13.0 0.00 0.00 0.00 75 1011.4
20260505161836 48 128 3.0 9.0 0.00 0.00 0.00 76 1011.3
20260505160815 48 113 4.0 12.0 0.00 0.00 0.00 78 1011.3
20260505152815 48 105 4.0 9.0 0.00 0.00 0.00 75 1011.4
20260505151815 48 110 9.0 14.0 0.00 0.00 0.00 74 1011.4
20260505150816 48 97 7.0 9.0 0.00 0.00 0.00 73 1011.3
20260505124835 52 250 4.0 7.0 0.00 0.00 0.00 73 1011.3
20260505123815 52 244 5.0 7.0 0.00 0.00 0.00 75 1011.1
20260505122816 52 215 1.0 2.0 0.00 0.00 0.00 75 1011.1
20260505121815 52 215 0.0 1.0 0.00 0.00 0.00 75 1011.1
20260505120815 52 215 1.0 2.0 0.00 0.00 0.00 74 1011.1
20260505115815 52 182 1.0 3.0 0.00 0.00 0.00 74 1011.3
20260505114815 52 154 7.0 12.0 0.00 0.00 0.00 73 1011.3
20260505113815 52 141 2.0 5.0 0.00 0.00 0.00 72 1011.1
20260505112815 52 263 3.0 6.0 0.00 0.00 0.00 72 1010.9
20260505111837 52 269 1.0 3.0 0.00 0.00 0.00 71 1010.8
20260505110837 52 269 1.0 1.0 0.00 0.00 0.00 70 1010.7
20260505101817 53 269 0.0 2.0 0.00 0.00 0.00 65 1011.1
20260505100817 53 269 1.0 4.0 0.00 0.00 0.00 64 1011.1
20260505095817 53 245 4.0 7.0 0.00 0.00 0.00 63 1010.8
20260505094817 52 148 1.0 2.0 0.00 0.00 0.00 67 1010.9
20260505093817 52 148 2.0 3.0 0.00 0.00 0.00 68 1010.7
20260505092815 52 148 0.0 1.0 0.00 0.00 0.00 69 1010.7
20260505091817 52 0.0 0.0 0.00 0.00 0.00 70 1010.7
20260505090816 53 0.0 0.0 0.00 0.00 0.00 70 1010.8
20260505085816 53 148 0.0 4.0 0.00 0.00 0.00 70 1011.5
20260505084817 53 144 2.0 7.0 0.00 0.00 0.00 71 1011.6
20260505083817 53 124 2.0 4.0 0.00 0.00 0.00 71 1011.6
20260505082817 53 139 1.0 4.0 0.00 0.00 0.00 71 1011.7
20260505081816 53 134 2.0 4.0 0.00 0.00 0.00 70 1011.4
20260505080817 53 125 2.0 3.0 0.00 0.00 0.00 70 1011.5
20260505075817 53 134 1.0 2.0 0.00 0.00 0.00 70 1012.1
20260505074816 54 160 3.0 5.0 0.00 0.00 0.00 69 1012.1
20260505073817 54 129 3.0 7.0 0.00 0.00 0.00 68 1012.3
20260505072818 54 156 5.0 7.0 0.00 0.00 0.00 64 1012.8
20260505071816 54 175 2.0 4.0 0.00 0.00 0.00 63 1012.4
20260505070816 53 142 5.0 10.0 0.00 0.00 0.00 65 1012.5
20260505065817 53 164 1.0 4.0 0.00 0.00 0.00 66 1012.5
20260505064816 53 239 1.0 2.0 0.00 0.00 0.00 66 1012.4
20260505063816 53 199 4.0 6.0 0.00 0.00 0.00 65 1012.4
20260505062816 53 219 2.0 10.0 0.00 0.00 0.00 64 1011.9
20260505061816 53 190 5.0 11.0 0.00 0.00 0.00 64 1012.0
20260505060836 53 194 8.0 14.0 0.00 0.00 0.00 64 1012.1
20260505055815 53 235 10.0 14.0 0.00 0.00 0.00 65 1011.7
20260505054816 53 200 11.0 18.0 0.00 0.00 0.00 67 1011.6
20260505053816 53 203 11.0 17.0 0.00 0.00 0.00 69 1011.8
20260505052815 53 201 9.0 16.0 0.00 0.00 0.00 69 1011.8
20260505051856 53 209 8.0 14.0 0.00 0.00 0.00 69 1011.7
20260505050815 54 213 10.0 19.0 0.00 0.00 0.00 69 1011.9
20260505040815 57 233 8.0 16.0 0.00 0.00 0.00 57 1011.0
20260505035815 58 194 8.0 13.0 0.00 0.00 0.00 52 1010.9
20260505034815 59 194 6.0 10.0 0.00 0.00 0.00 48 1010.6
20260505033815 59 185 3.0 7.0 0.00 0.00 0.00 47 1010.3
20260505032815 59 240 5.0 9.0 0.00 0.00 0.00 47 1010.0
20260505031815 60 215 4.0 7.0 0.00 0.00 0.00 47 1009.9
20260505030815 60 245 3.0 8.0 0.00 0.00 0.00 49 1010.1